Temperature
13 13 14 14 12 10 12 13 13 13 14 15 16 16 15 15 16 16 17 17 17 17 17 16 16 16 16 16 16 16 17 17 17 17 16 16 16 16 16 16 16 16 16 16 16 16 16 15 15
13 13 13 13 10 11 12 12 12 13 14 15 15 15 15 15 16 16 16 17 17 17 16 16 16 16 16 16 16 16 16 17 17 17 16 16 16 16 16 16 16 16 16 15 16 16 16 15 15
12 13 13 10 10 11 12 12 12 13 14 14 14 14 14 15 15 16 16 16 16 16 16 16 16 16 16 16 16 16 16 16 16 16 16 16 16 16 16 16 16 16 16 16 16 15 15 15 15
12 13 12 10 11 11 12 12 12 12 14 14 13 13 14 15 15 16 16 16 16 16 16 16 16 16 16 16 16 16 16 16 16 16 16 16 16 16 16 16 16 16 16 16 15 15 15 15 15
12 12 10 10 11 11 11 12 12 12 12 13 13 12 13 15 15 15 15 15 15 15 15 15 15 16 16 16 16 16 16 16 16 16 16 16 16 16 16 16 16 16 16 16 15 15 15 15 15
12 9 9 10 11 11 11 12 12 12 12 13 13 12 13 14 15 15 15 15 15 15 15 15 15 15 16 16 16 16 16 16 16 16 16 16 16 16 16 16 16 16 15 15 15 15 15 15 15
10 8 9 10 10 11 12 13 12 11 12 12 13 12 13 14 14 14 15 15 15 15 15 15 15 15 15 15 15 16 16 16 16 16 15 15 15 15 15 15 15 15 15 15 15 15 15 15 15
11 8 9 9 10 11 12 12 12 12 12 13 13 12 13 14 14 14 14 14 14 15 15 15 15 15 15 15 15 15 15 15 15 15 15 15 15 15 15 15 15 15 15 15 15 15 15 15 15
10 8 9 9 10 11 11 11 12 12 13 13 13 14 14 14 14 14 14 14 14 14 14 14 14 14 15 15 15 15 15 15 15 15 15 15 15 15 15 15 15 15 15 15 15 15 15 15 15
10 8 10 10 10 11 11 11 12 12 12 12 13 13 14 14 14 14 14 14 14 14 14 14 14 14 14 14 14 14 14 14 15 15 15 15 15 15 15 15 14 14 14 14 14 14 14 14 14
9 9 10 10 11 11 11 11 12 12 11 12 13 13 13 13 13 13 13 14 14 14 14 14 14 14 14 14 14 14 14 14 14 14 14 14 14 14 14 14 14 14 14 14 14 14 14 14 14
9 9 10 10 11 11 11 11 11 11 12 13 13 13 13 13 13 13 13 13 13 13 13 14 14 14 14 14 14 14 14 14 14 14 14 14 14 14 14 14 14 14 14 14 14 14 14 14 14
9 9 10 11 11 11 11 11 11 11 12 13 13 12 13 13 13 13 13 13 13 13 13 13 13 13 13 13 13 13 13 14 13 14 14 14 14 14 14 13 13 13 13 13 13 13 13 13 13
9 9 10 10 11 11 10 10 11 11 12 12 12 12 12 12 12 13 13 13 13 13 13 13 13 13 13 13 13 13 13 13 13 13 13 13 13 13 13 13 13 13 13 13 13 13 13 13 13
9 9 9 10 10 10 11 10 10 11 12 12 12 12 12 12 12 12 12 12 12 13 13 12 13 13 12 13 12 12 13 13 13 13 13 13 13 13 13 13 13 13 13 13 13 13 13 13 13
9 9 9 9 9 10 10 10 10 11 11 11 11 11 12 12 12 12 12 12 12 12 12 12 12 12 12 12 12 12 12 12 12 12 12 12 12 12 12 12 12 12 12 12 12 12 12 12 12
8 8 9 9 9 9 10 9 10 11 11 10 11 11 11 11 12 12 12 12 12 12 12 12 12 12 12 12 12 12 12 12 12 12 12 12 12 12 12 12 12 12 12 12 12 12 12 12 12
8 8 8 8 9 9 9 8 9 10 10 10 10 11 11 11 11 12 12 12 12 12 12 12 11 11 11 11 11 11 11 12 12 12 12 12 12 12 12 12 11 11 11 11 11 11 11 11 12
8 8 8 8 8 8 8 8 8 9 9 9 9 10 11 11 11 11 11 11 11 11 11 11 11 11 11 11 11 11 11 11 11 11 11 11 11 11 11 11 11 11 11 11 11 11 11 11 11
8 8 8 8 8 8 7 8 8 8 8 9 9 10 10 11 11 11 11 11 11 11 11 11 11 11 11 11 11 11 11 11 11 11 11 11 11 11 11 11 10 11 11 11 10 10 11 11 11
7 7 7 7 7 7 7 8 8 9 8 9 9 10 10 11 11 11 11 11 11 11 11 11 11 11 11 11 11 11 11 11 11 11 10 10 10 10 10 10 10 10 10 10 10 10 10 10 10
7 7 7 7 7 6 7 7 8 8 7 8 8 9 10 10 11 11 11 11 11 11 11 11 11 11 10 10 10 10 10 10 10 10 10 10 10 10 10 10 10 10 10 10 9 9 9 9 9
7 7 7 7 6 6 6 6 7 7 8 8 8 9 10 10 11 11 11 11 11 11 11 10 10 10 10 10 10 10 10 10 10 10 10 10 10 10 10 9 9 9 9 9 9 9 9 9 9
7 7 6 5 5 6 6 6 6 6 7 8 8 9 9 10 10 10 10 10 10 10 10 10 10 10 10 10 10 10 10 9 9 9 9 9 9 9 9 9 9 9 9 9 9 9 9 8 8
6 6 6 6 6 6 6 5 6 7 7 7 7 8 9 10 10 10 10 10 10 10 10 10 10 10 10 10 9 9 9 9 9 9 9 9 9 9 9 9 9 9 9 8 8 8 8 8 8
6 6 6 7 7 5 5 5 6 7 7 7 8 8 9 9 10 10 10 10 10 10 10 10 10 10 10 9 9 9 9 9 9 9 9 9 9 9 8 8 8 8 8 8 8 8 8 8 8
6 5 5 5 5 5 5 5 6 7 6 6 7 8 8 9 9 10 10 10 10 10 10 10 10 10 9 9 9 9 9 9 8 8 8 8 8 8 8 8 8 8 8 8 8 8 8 7 7
6 4 4 5 6 6 6 6 6 7 7 6 6 7 8 8 9 9 9 9 9 9 9 9 9 9 9 9 9 9 8 8 8 8 8 8 8 8 7 7 7 7 7 7 7 7 7 7 7
5 5 4 4 4 5 6 7 6 6 6 6 6 7 8 8 8 8 8 9 9 9 9 9 9 9 9 9 8 8 8 8 8 8 8 8 8 7 7 7 7 7 7 7 7 7 7 7 7
5 5 4 5 4 3 3 6 7 5 5 5 6 7 8 8 8 8 8 8 8 8 8 8 8 8 8 8 8 8 8 8 8 8 8 7 7 7 7 7 7 7 7 6 6 6 6 6 6
Wind_Speed
7 5 3 4 4 1 5 4 3 2 2 2 1 3 5 5 4 4 1 4 6 7 8 11 13 13 13 14 14 14 14 14 13 13 13 13 13 12 11 11 10 10 10 10 10 10 10 11 10
3 2 4 3 4 3 5 4 5 4 3 1 1 1 2 2 1 1 1 3 7 7 8 10 12 13 13 14 14 14 14 13 13 13 12 12 12 11 11 10 9 9 9 9 9 9 9 10 9
2 3 3 3 3 7 5 4 5 2 2 1 0 1 2 2 2 2 2 4 6 6 7 9 11 12 13 14 14 13 13 12 12 12 12 11 11 10 10 9 9 8 8 8 8 8 8 8 8
3 4 3 2 6 6 5 4 3 1 1 1 1 0 1 2 2 2 2 5 7 5 6 9 11 12 12 13 13 13 12 12 12 11 11 10 10 10 9 9 8 8 7 7 7 7 7 7 7
3 4 2 2 6 5 4 3 3 2 2 1 1 1 2 3 1 2 4 6 7 6 6 8 11 11 11 13 12 12 12 12 11 10 10 10 9 9 8 8 7 7 7 7 6 6 6 7 6
3 3 2 4 5 5 4 3 2 2 3 2 1 2 3 2 1 2 4 5 5 7 6 7 10 10 10 10 11 10 11 11 10 10 9 9 9 8 8 7 7 6 6 6 6 5 5 5 5
3 3 3 4 4 5 4 1 3 3 3 4 3 2 3 3 2 3 4 5 5 6 5 5 8 8 9 10 9 8 8 9 10 9 9 9 8 8 7 7 6 5 5 5 5 5 5 4 4
4 3 2 3 4 5 3 1 1 4 4 2 3 4 5 4 3 4 5 5 5 5 4 4 6 7 7 7 8 7 7 7 8 9 9 8 8 7 7 6 5 5 5 5 4 4 4 4 4
3 3 3 4 5 4 2 1 2 1 2 2 3 5 4 3 4 5 4 4 3 5 4 3 5 5 6 6 6 7 6 5 6 7 8 7 6 6 6 5 5 5 5 4 4 3 3 3 3
3 2 5 4 4 3 3 3 3 1 2 2 3 2 0 4 6 6 6 5 5 5 4 3 5 5 5 5 5 5 5 5 4 5 6 5 5 5 5 5 4 4 4 4 3 3 2 1 1
2 3 3 2 3 3 2 3 1 2 3 5 4 3 3 4 4 5 5 5 5 4 4 3 4 4 4 4 4 3 3 4 3 4 4 4 4 3 3 2 2 2 3 2 2 1 1 1 1
1 2 3 3 2 1 2 1 1 2 5 4 2 2 3 4 4 4 4 4 3 3 3 2 3 4 4 4 4 4 3 2 2 2 3 3 2 2 2 1 1 1 1 1 1 1 1 1 2
0 2 3 3 3 2 1 1 1 4 5 2 2 2 3 3 3 2 2 3 3 2 1 1 3 3 3 3 3 3 3 2 2 2 3 3 2 2 1 1 1 1 2 2 1 1 1 1 2
1 2 3 3 3 2 1 2 1 4 2 1 2 1 2 2 2 2 2 2 2 1 1 1 3 3 3 3 2 2 2 2 2 2 2 3 2 2 2 1 1 1 2 2 2 2 2 1 1
1 2 4 4 3 3 2 4 2 3 1 1 1 0 1 1 2 2 2 2 1 0 1 2 3 3 3 2 2 2 2 2 2 1 1 2 2 2 2 2 1 1 1 1 2 1 1 1 1
3 4 4 5 4 3 3 4 5 2 1 1 1 1 1 1 1 1 1 1 1 1 2 2 2 3 3 3 2 2 2 2 2 1 1 2 2 2 2 2 1 1 0 0 1 1 1 1 2
6 3 3 6 5 3 1 4 6 3 1 3 2 2 1 1 2 1 1 1 1 2 3 3 3 3 3 3 2 2 2 2 2 2 1 2 2 2 1 1 0 0 0 0 1 1 1 2 2
1 2 3 4 5 4 3 5 8 5 2 3 3 2 1 1 1 1 1 1 1 2 3 3 3 3 3 2 2 2 2 1 2 2 2 2 1 2 2 1 0 0 1 0 0 1 1 1 2
1 0 3 5 4 4 5 7 9 6 3 4 3 3 3 3 1 1 1 1 2 2 2 2 3 2 2 2 1 1 1 0 1 1 2 2 2 2 1 1 0 0 1 2 2 1 1 1 1
2 2 3 5 5 3 5 8 7 4 3 4 4 4 4 2 1 0 1 1 1 1 1 2 2 2 2 1 1 1 1 1 1 0 1 2 2 1 1 0 1 1 1 1 1 1 1 1 0
2 0 3 4 6 4 5 7 5 3 2 2 2 3 3 4 4 2 2 2 1 2 2 2 2 2 1 2 2 2 2 2 1 1 1 1 2 1 1 0 1 1 1 1 2 2 2 2 2
2 2 2 3 4 4 4 4 6 4 5 3 3 2 3 3 2 2 2 2 2 3 2 1 1 1 1 2 2 3 1 0 1 1 1 2 2 2 1 1 1 1 1 1 2 2 2 2 2
2 1 1 1 1 3 2 1 8 4 4 5 4 3 4 3 2 2 3 3 2 1 1 2 1 1 1 2 3 3 2 1 0 0 1 2 2 2 2 1 1 1 1 2 1 1 2 2 2
1 3 4 4 3 2 2 3 7 4 5 4 4 4 4 3 2 2 2 1 1 1 0 1 2 1 1 2 2 3 3 2 1 1 1 1 1 1 1 1 1 1 1 2 2 2 2 2 2
4 4 4 5 3 5 1 3 8 6 5 4 5 4 4 2 1 1 2 1 1 1 1 1 2 2 1 2 2 3 3 3 3 3 2 2 2 2 2 2 2 2 2 2 2 2 3 3 3
1 4 4 3 4 5 3 6 7 5 4 3 3 2 1 1 1 1 2 2 2 2 2 2 3 3 2 2 3 2 3 2 3 3 3 3 3 3 3 2 2 2 2 2 2 2 3 3 3
2 2 3 4 1 4 6 7 8 3 3 1 1 1 0 1 1 2 2 2 2 2 2 3 3 3 3 3 3 3 3 3 4 4 3 3 3 3 3 3 3 3 3 3 2 3 3 3 3
2 5 4 3 2 4 7 6 5 5 4 2 1 1 2 2 2 2 2 2 2 2 2 2 2 3 3 3 3 3 4 4 4 3 4 4 4 4 3 3 3 3 3 3 3 3 3 3 4
3 2 3 2 3 3 5 7 5 5 4 4 4 4 3 3 2 3 3 3 2 2 2 2 2 2 2 3 3 3 4 4 4 4 5 5 4 4 4 5 4 4 4 4 4 4 4 4 4
4 5 6 3 4 4 3 7 4 3 4 3 4 4 3 3 3 2 3 3 3 3 3 3 3 3 3 3 3 3 3 3 4 5 5 4 5 5 5 5 5 5 5 5 5 5 5 5 5
Wind_Direction
343 358 49 58 70 74 234 232 212 201 227 220 187 165 168 174 177 199 243 146 142 149 156 157 155 153 151 148 144 141 138 137 136 136 136 134 134 134 134 133 131 131 131 129 129 127 126 123 121
345 16 54 70 128 201 247 225 215 217 212 212 9 106 144 224 227 149 174 156 146 148 151 155 158 153 152 151 147 145 143 141 140 139 139 139 138 137 136 135 133 131 131 132 132 131 131 131 131
5 44 88 99 162 202 226 215 211 260 263 193 88 9 170 197 200 186 196 152 141 144 146 155 155 156 154 155 151 148 147 146 144 143 142 141 141 143 139 137 136 135 132 133 136 137 137 136 138
61 49 57 118 215 224 222 240 218 256 319 4 143 303 275 270 252 208 153 141 140 143 145 152 150 155 152 154 154 152 151 151 148 146 144 144 143 141 140 135 133 135 136 139 140 141 146 145 145
56 83 85 233 238 253 249 253 215 236 245 254 177 201 272 308 284 157 143 146 147 143 141 150 146 149 149 151 152 156 154 154 152 149 147 147 146 145 144 141 140 142 145 146 146 144 148 154 155
62 77 129 226 245 272 269 241 200 233 250 267 200 204 249 275 186 156 147 143 145 143 132 141 143 145 143 146 151 152 155 154 153 153 152 151 148 148 147 146 147 149 154 155 153 152 155 158 163
113 111 181 215 249 271 269 241 180 203 233 237 190 178 254 251 194 149 136 130 130 128 121 120 134 141 142 137 136 144 149 152 158 157 155 150 147 149 151 152 155 160 161 164 165 164 165 167 167
126 116 159 211 223 254 272 311 237 200 231 229 180 185 224 221 182 134 115 113 126 125 117 120 123 125 127 131 134 135 136 145 151 153 148 145 145 146 149 154 161 165 165 161 160 170 177 179 178
102 98 199 214 213 245 267 292 309 297 198 248 224 222 245 176 145 131 127 109 131 130 125 126 128 121 118 125 127 122 124 126 137 144 140 138 139 144 151 158 164 165 162 158 156 159 177 185 190
105 167 221 218 208 231 265 262 265 275 282 276 278 280 177 147 147 153 158 152 163 157 151 143 137 132 123 122 120 114 115 111 111 124 133 132 136 144 152 160 165 165 166 167 168 162 150 139 163
131 194 245 258 246 239 241 267 275 173 261 252 241 213 159 153 153 159 174 169 173 165 161 154 140 133 131 128 129 111 109 106 103 111 126 130 127 127 131 138 158 162 163 159 166 144 154 168 190
114 259 248 267 274 249 239 252 326 224 252 275 254 175 157 157 169 171 179 179 177 165 168 148 133 138 138 135 137 131 123 114 105 121 129 127 123 131 139 142 156 159 172 163 168 188 219 225 234
121 280 292 282 300 275 278 271 268 288 289 335 60 86 158 170 174 178 173 158 147 162 188 155 142 142 136 130 139 137 141 144 134 136 144 139 145 160 163 169 175 189 193 190 206 225 240 250 254
236 277 299 315 326 327 313 301 309 286 316 50 97 152 159 165 151 123 133 151 155 163 171 145 151 139 128 129 132 143 142 141 131 140 152 147 150 159 163 172 197 222 220 214 212 225 232 248 247
331 353 349 348 338 335 351 338 276 279 21 37 38 2 62 79 110 130 153 163 167 201 124 140 145 127 122 116 107 107 104 103 106 103 145 139 137 153 165 171 194 251 254 233 229 235 229 241 253
25 31 359 331 355 349 63 300 304 336 13 305 337 349 37 41 32 117 108 90 77 140 120 122 120 122 124 121 115 103 95 95 83 59 97 110 123 156 164 169 202 257 275 242 218 220 245 259 263
31 21 330 326 356 5 61 270 294 346 335 299 315 324 9 39 11 24 66 93 105 122 119 112 104 117 118 113 105 93 95 92 84 66 59 76 87 111 133 164 222 227 196 266 254 262 231 261 272
323 340 323 313 331 357 325 280 295 316 304 285 295 301 295 279 288 325 55 85 87 91 104 106 97 105 110 103 97 93 89 77 74 73 41 55 67 88 101 124 76 187 173 226 261 271 261 253 259
138 131 296 294 322 342 301 290 291 303 295 272 265 253 250 252 275 24 70 100 105 92 102 113 119 116 103 98 107 130 146 120 81 57 31 29 32 46 78 91 132 207 202 226 235 256 268 275 288
60 352 314 316 343 342 313 297 290 287 263 250 239 232 234 246 286 129 107 110 145 164 150 136 126 114 113 140 154 144 158 167 202 305 15 21 28 17 34 117 214 233 226 240 243 239 253 281 187
16 251 289 301 332 4 343 319 314 322 339 318 272 248 243 224 227 220 199 193 187 206 208 182 164 138 126 118 105 79 54 35 27 14 342 334 339 327 329 257 228 249 220 231 251 233 226 253 258
295 281 275 322 4 326 20 309 296 309 322 310 285 272 263 263 257 251 238 235 226 223 204 195 172 155 145 130 125 122 128 176 262 255 277 319 330 326 316 292 258 233 235 240 245 231 237 235 260
226 319 354 3 72 335 353 235 288 325 299 287 280 273 267 258 255 268 258 250 252 234 184 187 185 185 160 143 146 143 156 184 272 305 316 328 332 329 323 306 287 265 257 252 251 248 241 232 240
149 46 44 46 63 316 257 196 283 265 250 283 288 290 285 280 278 292 309 319 316 346 23 180 191 211 182 161 157 165 184 190 195 296 290 306 312 303 300 299 269 255 262 265 260 248 242 246 249
58 74 18 354 358 261 260 221 254 261 252 248 260 270 282 289 285 301 321 320 309 307 291 249 220 230 209 189 200 204 205 204 211 233 250 266 278 278 282 284 268 265 254 257 260 251 247 245 247
156 137 158 219 254 289 300 244 256 267 279 268 253 252 293 343 325 292 288 282 287 289 281 259 242 242 228 214 227 225 218 217 226 229 230 242 250 258 265 262 261 260 259 258 256 256 249 243 244
134 161 158 139 213 280 276 282 298 293 312 327 1 65 345 289 303 311 320 316 310 302 283 261 251 253 245 231 232 234 226 223 233 240 237 245 251 261 257 253 254 258 257 251 246 250 252 244 241
130 143 105 136 204 269 288 275 264 277 274 277 255 244 260 279 303 325 333 316 309 301 302 306 273 260 261 250 239 243 236 233 233 234 239 242 249 251 256 259 254 255 257 252 245 250 249 244 249
138 138 137 147 184 200 272 274 232 230 237 232 241 244 247 253 268 286 303 305 303 313 313 302 300 286 282 270 257 254 252 243 237 237 243 244 247 245 245 248 249 249 249 246 242 245 245 248 256
186 183 161 182 234 207 234 270 288 245 252 233 250 264 276 277 275 281 300 316 321 316 313 309 302 292 281 274 267 262 260 252 249 252 252 246 247 247 245 246 248 249 247 242 238 247 245 242 249
Height
1491 1492 1494 1496 1500 1508 1505 1500 1497 1496 1495 1494 1494 1495 1496 1497 1500 1503 1497 1496 1498 1500 1503 1506 1508 1510 1512 1514 1516 1518 1520 1522 1523 1524 1526 1527 1528 1530 1531 1532 1534 1535 1536 1537 1538 1539 1540 1541 1542
1491 1492 1495 1496 1503 1509 1504 1497 1496 1494 1494 1493 1493 1493 1494 1494 1494 1495 1494 1495 1498 1500 1502 1505 1508 1509 1511 1514 1516 1518 1520 1521 1523 1524 1526 1527 1528 1530 1531 1532 1534 1535 1536 1537 1538 1539 1540 1541 1542
1491 1492 1495 1497 1502 1504 1499 1494 1493 1492 1492 1492 1493 1493 1493 1493 1493 1493 1494 1496 1497 1500 1502 1504 1507 1509 1511 1513 1515 1517 1519 1521 1522 1524 1525 1527 1528 1530 1531 1532 1533 1535 1536 1537 1538 1539 1540 1541 1542
1492 1493 1495 1500 1499 1497 1494 1491 1491 1491 1492 1492 1492 1493 1492 1492 1492 1493 1494 1495 1497 1499 1501 1504 1506 1508 1510 1512 1515 1517 1519 1520 1522 1523 1525 1526 1528 1529 1530 1531 1533 1534 1535 1537 1538 1539 1540 1541 1542
1491 1493 1498 1502 1497 1494 1491 1489 1490 1491 1491 1491 1492 1491 1490 1491 1491 1492 1493 1495 1497 1498 1501 1503 1505 1507 1509 1511 1514 1516 1518 1519 1521 1523 1524 1526 1527 1528 1529 1531 1532 1533 1534 1536 1537 1538 1539 1541 1542
1492 1493 1503 1503 1497 1493 1490 1489 1489 1490 1490 1490 1491 1490 1489 1489 1490 1491 1493 1495 1497 1498 1500 1502 1504 1506 1508 1510 1513 1515 1517 1519 1520 1522 1523 1525 1526 1527 1528 1530 1531 1532 1533 1535 1536 1537 1538 1540 1541
1493 1497 1500 1500 1498 1494 1489 1488 1488 1489 1489 1489 1489 1489 1487 1488 1489 1490 1492 1494 1496 1498 1500 1501 1503 1505 1507 1508 1511 1514 1516 1518 1519 1521 1522 1523 1525 1526 1527 1529 1530 1531 1532 1533 1534 1536 1537 1538 1540
1491 1497 1499 1500 1497 1493 1488 1487 1487 1487 1487 1487 1488 1487 1486 1487 1488 1489 1491 1493 1495 1497 1499 1500 1502 1504 1505 1508 1510 1512 1514 1516 1518 1520 1521 1522 1523 1525 1526 1527 1529 1530 1531 1532 1533 1534 1535 1537 1538
1492 1499 1499 1497 1495 1490 1488 1487 1487 1486 1485 1485 1485 1485 1484 1486 1487 1488 1490 1491 1493 1495 1498 1500 1501 1503 1505 1506 1508 1511 1513 1515 1517 1518 1519 1521 1522 1523 1525 1526 1527 1528 1529 1530 1532 1533 1534 1535 1536
1492 1498 1494 1491 1489 1488 1487 1486 1486 1486 1485 1484 1483 1483 1483 1484 1486 1487 1488 1489 1491 1494 1496 1499 1500 1502 1504 1505 1508 1509 1511 1513 1515 1517 1518 1519 1520 1522 1523 1525 1526 1527 1528 1529 1530 1531 1532 1533 1534
1491 1493 1490 1488 1487 1486 1486 1485 1485 1484 1484 1482 1481 1482 1482 1483 1485 1486 1487 1489 1490 1493 1495 1498 1499 1501 1503 1504 1506 1508 1510 1511 1513 1515 1516 1518 1519 1520 1522 1523 1524 1525 1526 1527 1528 1529 1530 1531 1532
1492 1490 1489 1488 1486 1486 1485 1485 1484 1483 1482 1481 1481 1481 1482 1482 1483 1484 1486 1488 1489 1491 1494 1496 1497 1500 1502 1503 1505 1506 1508 1510 1511 1512 1514 1516 1517 1518 1520 1521 1522 1523 1524 1525 1526 1527 1528 1529 1529
1491 1491 1489 1487 1486 1485 1485 1484 1484 1482 1481 1480 1480 1480 1481 1482 1483 1485 1485 1486 1488 1490 1492 1494 1496 1498 1499 1501 1503 1504 1506 1508 1509 1510 1512 1514 1515 1516 1517 1519 1520 1521 1522 1523 1524 1525 1525 1526 1527
1490 1490 1488 1486 1485 1484 1484 1483 1483 1481 1481 1480 1480 1480 1481 1481 1482 1483 1485 1486 1488 1489 1491 1493 1495 1497 1498 1499 1501 1502 1503 1505 1507 1509 1510 1512 1513 1514 1515 1516 1517 1518 1519 1520 1521 1522 1523 1523 1524
1490 1490 1488 1486 1485 1485 1484 1484 1483 1481 1481 1480 1480 1480 1479 1481 1482 1483 1484 1485 1486 1488 1489 1491 1493 1495 1496 1497 1499 1500 1502 1503 1505 1506 1508 1509 1510 1512 1513 1514 1515 1516 1517 1518 1518 1519 1520 1520 1521
1491 1493 1494 1489 1487 1486 1488 1488 1482 1482 1481 1480 1480 1480 1480 1481 1483 1484 1484 1485 1486 1488 1488 1491 1492 1494 1495 1496 1498 1498 1500 1501 1503 1504 1506 1507 1508 1509 1510 1511 1512 1513 1514 1515 1515 1516 1516 1517 1518
1498 1501 1498 1493 1489 1488 1489 1489 1483 1482 1481 1480 1480 1480 1481 1481 1482 1483 1484 1486 1486 1487 1488 1490 1491 1492 1493 1495 1496 1497 1497 1499 1501 1502 1503 1504 1506 1507 1508 1509 1509 1510 1511 1511 1512 1513 1513 1514 1514
1503 1502 1500 1498 1493 1491 1490 1488 1483 1481 1480 1479 1479 1480 1481 1482 1483 1484 1485 1486 1486 1487 1488 1489 1490 1491 1492 1493 1494 1495 1496 1497 1499 1500 1500 1502 1503 1504 1505 1506 1506 1507 1508 1508 1509 1510 1510 1511 1511
1500 1501 1501 1498 1494 1493 1491 1488 1483 1480 1479 1479 1479 1480 1481 1482 1483 1484 1485 1486 1487 1487 1488 1488 1489 1490 1491 1491 1492 1493 1494 1495 1496 1497 1498 1499 1500 1501 1502 1503 1503 1504 1504 1505 1506 1507 1507 1507 1508
1500 1502 1501 1498 1494 1494 1493 1488 1482 1480 1478 1477 1477 1478 1479 1480 1481 1483 1484 1485 1486 1486 1487 1488 1488 1489 1490 1491 1491 1491 1492 1493 1494 1495 1496 1497 1498 1499 1499 1500 1501 1501 1501 1502 1502 1503 1504 1504 1504
1503 1504 1503 1501 1497 1495 1495 1488 1483 1480 1478 1477 1476 1477 1477 1478 1480 1482 1483 1484 1485 1486 1487 1487 1488 1488 1489 1490 1490 1490 1490 1490 1492 1493 1494 1495 1495 1496 1497 1497 1497 1498 1498 1498 1499 1500 1500 1500 1501
1505 1502 1501 1501 1503 1505 1502 1502 1487 1482 1480 1477 1476 1476 1476 1477 1479 1480 1481 1482 1483 1484 1485 1486 1487 1487 1488 1488 1488 1488 1489 1489 1490 1491 1492 1492 1493 1494 1494 1495 1495 1495 1495 1495 1495 1496 1497 1497 1497
1503 1501 1502 1502 1504 1508 1505 1506 1492 1484 1480 1477 1476 1475 1475 1477 1478 1479 1480 1481 1482 1483 1484 1484 1485 1486 1487 1487 1488 1488 1488 1488 1488 1488 1489 1490 1491 1491 1492 1492 1492 1492 1492 1492 1492 1492 1493 1493 1493
1502 1503 1505 1508 1509 1510 1505 1507 1496 1487 1480 1477 1475 1474 1474 1475 1477 1478 1479 1480 1481 1481 1482 1483 1484 1485 1485 1486 1486 1486 1486 1486 1487 1486 1487 1487 1488 1489 1489 1488 1488 1488 1489 1489 1489 1489 1489 1489 1489
1504 1509 1515 1512 1515 1509 1505 1505 1495 1480 1478 1476 1475 1474 1473 1474 1475 1477 1478 1479 1479 1480 1481 1482 1482 1483 1483 1484 1484 1484 1485 1485 1485 1485 1485 1485 1485 1485 1486 1485 1485 1485 1485 1485 1485 1485 1485 1485 1485
1506 1508 1515 1513 1512 1511 1506 1502 1486 1477 1475 1474 1473 1473 1473 1473 1474 1475 1476 1477 1478 1479 1480 1480 1480 1481 1481 1482 1482 1483 1483 1483 1483 1483 1483 1483 1482 1482 1482 1482 1482 1482 1482 1481 1481 1481 1481 1481 1481
1506 1510 1510 1516 1518 1516 1505 1497 1483 1474 1473 1473 1473 1472 1472 1473 1474 1475 1475 1476 1477 1477 1478 1478 1478 1478 1479 1479 1480 1480 1480 1480 1480 1480 1480 1479 1479 1479 1479 1478 1478 1478 1478 1478 1478 1477 1477 1477 1477
1505 1508 1515 1515 1511 1507 1501 1496 1488 1476 1474 1473 1473 1472 1472 1473 1473 1474 1474 1475 1475 1475 1475 1476 1476 1476 1476 1477 1477 1477 1477 1477 1477 1477 1476 1476 1476 1475 1475 1474 1474 1474 1474 1474 1474 1473 1473 1473 1473
1506 1509 1510 1515 1513 1511 1505 1491 1477 1475 1472 1472 1472 1472 1472 1472 1473 1473 1473 1473 1473 1473 1474 1473 1473 1473 1473 1474 1474 1473 1473 1473 1473 1473 1473 1472 1472 1472 1471 1471 1470 1470 1470 1470 1469 1469 1468 1468 1468
1502 1503 1508 1510 1511 1516 1515 1494 1472 1472 1471 1471 1471 1471 1471 1471 1471 1471 1471 1471 1471 1471 1471 1470 1470 1470 1470 1470 1470 1470 1470 1470 1469 1469 1469 1468 1468 1468 1467 1466 1466 1465 1465 1465 1464 1464 1464 1463 1463